Tracking 35237 objects as of 6-Sep-2026
HD Live streaming from Space Station
objects crossing your sky now

SXC3-217 (SIREN)


SXC3-217 (SIREN) is no longer on orbit
SXC3-217 (SIREN) is classified as:


NORAD ID: 53384
Int'l Code: 2022-096Q
Launch date: August 9, 2022
Source: (TBD)
Launch site: TYURATAM MISSILE AND SPACE COMPLEX (TTMTR)
Decay date: 2024-07-06

Uplink (MHz):
Downlink (MHz): 437.750
Beacon (MHz):
Mode: 2k4/9k6* GMSK_USP
Call sign: RS30S
Status: Reentered


Uplink (MHz):
Downlink (MHz): 437.750
Beacon (MHz):
Mode: 2k4/4k8*GMSK_USP
Call sign: RS30S
Status: Reentered

Your satellite tracking list
Your tracking list is empty




NASA's NSSDC Master Catalog

Two Line Element Set (TLE):
1 53384U 22096Q   24188.17644722  .15600392  26894-5  15301-3 0  9991
2 53384  97.3553 111.7586 0009951 211.7483 148.3223 16.50887592107457
Source of the keplerian elements: AFSPC